Hot Springs, VA

11:59 AM EDT on October 01, 2016 (GMT -0400)
Ingalls

Weather History for KHSP - January, 2014

Change the Weather History Date:

Monday, January 20, 2014

  Actual Average Record
Temperature  
Mean Temperature 34 °F -  
Max Temperature 42 °F 29 °F 53 °F (2006)
Min Temperature 26 °F 16 °F 0 °F (2008)
Degree Days  
Heating Degree Days 31    
Moisture  
Dew Point 21 °F    
Average Humidity 60    
Maximum Humidity 75    
Minimum Humidity 42    
Precipitation  
Precipitation 0.00 in - - ()
Sea Level Pressure  
Sea Level Pressure 29.73 in    
Wind  
Wind Speed 24 mph (West)    
Max Wind Speed 32 mph    
Max Gust Speed 45 mph    
Visibility 10 miles    
Events      
Averages and records for this station are not official NWS values.
T = Trace of Precipitation, MM = Missing Value Source: NWS Daily Summary

Daily Weather History Graph

Daily Weather History Graph

Search for Another Location

Airport or City:

Trip Planner

Search our weather history database for the weather conditions in past years. The results will help you decide how hot, cold, wet, or windy it might be!

Date:

Astronomy

Jan. 20, 2014 Rise Set
Actual Time 7:31 AM EST 5:29 PM EST
Civil Twilight 7:03 AM EST 5:57 PM EST
Nautical Twilight 6:31 AM EST 6:29 PM EST
Astronomical Twilight 5:59 AM EST 7:01 PM EST
Moon 9:57 PM EST (1/20) 9:35 AM EST (1/20)
Length of Visible Light 10h 54m
Length of Day
9h 57m
Waning Gibbous, 83% of the Moon is Illuminated
Jan 20
Waning Gibbous
Jan 24
Last Quarter
Jan 30
New
Feb 6
First Quarter
Feb 14
Full

Hourly Weather History & Observations

Time (EST) Temp. Windchill Dew Point Humidity Pressure Visibility Wind Dir Wind Speed Gust Speed Precip Events Conditions
12:15 AM 26.6 °F 11.7 °F 17.6 °F 69% 29.74 in 10.0 mi West 24.2 mph 34.5 mph N/A   Clear
12:35 AM 28.4 °F 13.8 °F 17.6 °F 64% 29.73 in 10.0 mi West 25.3 mph 35.7 mph N/A   Clear
12:55 AM 28.4 °F 13.3 °F 17.6 °F 64% 29.73 in 10.0 mi West 27.6 mph 34.5 mph N/A   Clear
1:15 AM 28.4 °F 13.3 °F 17.6 °F 64% 29.72 in 10.0 mi West 27.6 mph 35.7 mph N/A   Clear
1:35 AM 28.4 °F 14.1 °F 17.6 °F 64% 29.71 in 10.0 mi West 24.2 mph 34.5 mph N/A   Clear
1:55 AM 28.4 °F 13.5 °F 17.6 °F 64% 29.70 in 10.0 mi West 26.5 mph 33.4 mph N/A   Clear
2:15 AM 28.4 °F 12.5 °F 17.6 °F 64% 29.70 in 10.0 mi West 31.1 mph 35.7 mph N/A   Clear
2:35 AM 28.4 °F 13.0 °F 17.6 °F 64% 29.71 in 10.0 mi West 28.8 mph 33.4 mph N/A   Clear
2:55 AM 28.4 °F 13.5 °F 17.6 °F 64% 29.71 in 10.0 mi West 26.5 mph 33.4 mph N/A   Clear
3:15 AM 28.4 °F 13.8 °F 17.6 °F 64% 29.70 in 10.0 mi West 25.3 mph 34.5 mph N/A   Clear
3:35 AM 28.4 °F 13.8 °F 17.6 °F 64% 29.70 in 10.0 mi West 25.3 mph 33.4 mph N/A   Clear
3:55 AM 28.4 °F 13.8 °F 17.6 °F 64% 29.70 in 10.0 mi West 25.3 mph 33.4 mph N/A   Clear
4:15 AM 28.4 °F 13.3 °F 15.8 °F 59% 29.69 in 10.0 mi West 27.6 mph 35.7 mph N/A   Clear
4:35 AM 28.4 °F 12.7 °F 15.8 °F 59% 29.69 in 10.0 mi West 29.9 mph 38.0 mph N/A   Clear
4:55 AM 28.4 °F 12.7 °F 15.8 °F 59% 29.68 in 10.0 mi West 29.9 mph 36.8 mph N/A   Clear
5:15 AM 30.2 °F 15.4 °F 15.8 °F 55% 29.67 in 10.0 mi West 28.8 mph 38.0 mph N/A   Clear
5:35 AM 28.4 °F 13.3 °F 17.6 °F 64% 29.67 in 10.0 mi West 27.6 mph 36.8 mph N/A   Clear
5:55 AM 28.4 °F 12.7 °F 17.6 °F 64% 29.67 in 10.0 mi West 29.9 mph 35.7 mph N/A   Clear
6:15 AM 30.2 °F 15.4 °F 17.6 °F 60% 29.67 in 10.0 mi West 28.8 mph 35.7 mph N/A   Clear
6:35 AM 30.2 °F 15.7 °F 17.6 °F 60% 29.67 in 10.0 mi West 27.6 mph 39.1 mph N/A   Clear
6:55 AM 30.2 °F 14.9 °F 17.6 °F 60% 29.67 in 10.0 mi West 31.1 mph 39.1 mph N/A   Clear
7:15 AM 30.2 °F 14.7 °F 17.6 °F 60% 29.67 in 10.0 mi West 32.2 mph 44.9 mph N/A   Clear
7:35 AM 30.2 °F 14.9 °F 17.6 °F 60% 29.68 in 10.0 mi West 31.1 mph 36.8 mph N/A   Clear
7:55 AM 30.2 °F 15.7 °F 17.6 °F 60% 29.68 in 10.0 mi West 27.6 mph 34.5 mph N/A   Clear
8:15 AM 30.2 °F 15.9 °F 19.4 °F 64% 29.69 in 10.0 mi West 26.5 mph 34.5 mph N/A   Clear
8:35 AM 30.2 °F 16.2 °F 19.4 °F 64% 29.69 in 10.0 mi West 25.3 mph 35.7 mph N/A   Clear
8:55 AM 30.2 °F 16.2 °F 19.4 °F 64% 29.70 in 10.0 mi West 25.3 mph 38.0 mph N/A   Clear
9:35 AM 32.0 °F 18.6 °F 19.4 °F 60% 29.70 in 10.0 mi West 25.3 mph 35.7 mph N/A   Clear
9:55 AM 32.0 °F 18.9 °F 21.2 °F 64% 29.70 in 10.0 mi West 24.2 mph 33.4 mph N/A   Clear
10:15 AM 32.0 °F 19.2 °F 21.2 °F 64% 29.70 in 10.0 mi West 23.0 mph 28.8 mph N/A   Clear
10:35 AM 33.8 °F 21.0 °F 21.2 °F 60% 29.71 in 10.0 mi West 25.3 mph 33.4 mph N/A   Clear
10:55 AM 33.8 °F 21.9 °F 21.2 °F 60% 29.72 in 10.0 mi West 21.9 mph 31.1 mph N/A   Clear
11:15 AM 35.6 °F 25.2 °F 21.2 °F 56% 29.72 in 10.0 mi West 18.4 mph 35.7 mph N/A   Clear
11:35 AM 35.6 °F 23.4 °F 23.0 °F 60% 29.71 in 10.0 mi West 25.3 mph 32.2 mph N/A   Clear
11:55 AM 35.6 °F 24.2 °F 23.0 °F 60% 29.71 in 10.0 mi West 21.9 mph 33.4 mph N/A   Clear
12:15 PM 37.4 °F 26.1 °F 23.0 °F 56% 29.70 in 10.0 mi West 24.2 mph 31.1 mph N/A   Clear
12:35 PM 37.4 °F 27.2 °F 24.8 °F 60% 29.70 in 10.0 mi West 19.6 mph 31.1 mph N/A   Clear
12:55 PM 39.2 °F 29.3 °F 24.8 °F 56% 29.69 in 10.0 mi West 20.7 mph 31.1 mph N/A   Clear
1:15 PM 39.2 °F 28.5 °F 24.8 °F 56% 29.70 in 10.0 mi West 24.2 mph 29.9 mph N/A   Clear
1:35 PM 39.2 °F 29.3 °F 24.8 °F 56% 29.71 in 10.0 mi West 20.7 mph 26.5 mph N/A   Clear
1:55 PM 39.2 °F 28.5 °F 23.0 °F 52% 29.70 in 10.0 mi West 24.2 mph 27.6 mph N/A   Clear
2:15 PM 41.0 °F 31.1 °F 21.2 °F 45% 29.71 in 10.0 mi West 23.0 mph 29.9 mph N/A   Clear
2:35 PM 41.0 °F 30.9 °F 21.2 °F 45% 29.72 in 10.0 mi West 24.2 mph 32.2 mph N/A   Clear
2:55 PM 42.8 °F 34.8 °F 21.2 °F 42% 29.73 in 10.0 mi West 17.3 mph 24.2 mph N/A   Clear
3:15 PM 42.8 °F 34.8 °F 21.2 °F 42% 29.73 in 10.0 mi West 17.3 mph 29.9 mph N/A   Clear
3:35 PM 42.8 °F 34.5 °F 21.2 °F 42% 29.74 in 10.0 mi West 18.4 mph 26.5 mph N/A   Clear
3:55 PM 41.0 °F 31.1 °F 21.2 °F 45% 29.75 in 10.0 mi West 23.0 mph 28.8 mph N/A   Clear
4:15 PM 41.0 °F 31.9 °F 21.2 °F 45% 29.75 in 10.0 mi West 19.6 mph 31.1 mph N/A   Clear
4:35 PM 39.2 °F 29.3 °F 21.2 °F 49% 29.76 in 10.0 mi West 20.7 mph 26.5 mph N/A   Clear
4:55 PM 39.2 °F 29.8 °F 21.2 °F 49% 29.77 in 10.0 mi West 18.4 mph 27.6 mph N/A   Clear
5:35 PM 37.4 °F 28.2 °F 21.2 °F 52% 29.79 in 10.0 mi West 16.1 mph - N/A   Clear
5:55 PM 37.4 °F 26.9 °F 21.2 °F 52% 29.80 in 10.0 mi West 20.7 mph - N/A   Clear
6:15 PM 37.4 °F 27.8 °F 21.2 °F 52% 29.80 in 10.0 mi West 17.3 mph 21.9 mph N/A   Clear
6:35 PM 35.6 °F 26.6 °F 23.0 °F 60% 29.80 in 10.0 mi West 13.8 mph 24.2 mph N/A   Clear
6:55 PM 35.6 °F 26.2 °F 23.0 °F 60% 29.80 in 10.0 mi West 15.0 mph 23.0 mph N/A   Clear
7:15 PM 35.6 °F 27.5 °F 23.0 °F 60% 29.81 in 10.0 mi West 11.5 mph 19.6 mph N/A   Clear
7:35 PM 35.6 °F 27.5 °F 23.0 °F 60% 29.82 in 10.0 mi West 11.5 mph 18.4 mph N/A   Clear
7:55 PM 35.6 °F 27.5 °F 23.0 °F 60% 29.82 in 10.0 mi West 11.5 mph 17.3 mph N/A   Clear
8:15 PM 33.8 °F 25.3 °F 23.0 °F 65% 29.82 in 10.0 mi West 11.5 mph - N/A   Clear
8:55 PM 33.8 °F 24.3 °F 24.8 °F 70% 29.82 in 10.0 mi West 13.8 mph 18.4 mph N/A   Clear
9:15 PM 33.8 °F 25.8 °F 24.8 °F 70% 29.82 in 10.0 mi West 10.4 mph - N/A   Clear
9:35 PM 33.8 °F 26.4 °F 24.8 °F 70% 29.83 in 10.0 mi West 9.2 mph - N/A   Clear
9:55 PM 32.0 °F 27.5 °F 24.8 °F 75% 29.82 in 10.0 mi West 4.6 mph - N/A   Clear
10:15 PM 30.2 °F 25.4 °F 23.0 °F 75% 29.82 in 10.0 mi WSW 4.6 mph - N/A   Clear
10:35 PM 30.2 °F 23.4 °F 23.0 °F 75% 29.82 in 10.0 mi WSW 6.9 mph - N/A   Clear
11:15 PM 32.0 °F 24.8 °F 24.8 °F 75% 29.80 in 10.0 mi West 8.1 mph - N/A   Clear
11:35 PM 30.2 °F 22.6 °F 23.0 °F 75% 29.80 in 10.0 mi West 8.1 mph - N/A   Clear
11:55 PM 32.0 °F 25.6 °F 24.8 °F 75% 29.79 in 10.0 mi West 6.9 mph - N/A   Clear